Weather in Astypalaia

Greece     36°32′49″N   26°21′07″E
temp.,
°C
wind,
m/s
gust,
m/s
humid.,
%
clouds,
%
prec.,
mm/h
press.,
hPa
HPBL,
m
17 april, sat
sat1700:00+17ese111675100 0.0 1013342
03:00+17se101675100 0.0 1013375
06:00+17ese91376100 0.0 1012404
09:00+17se162276100 0.0 1010461
12:00+18sse162473100 0.0 1010504
15:00+18sse121780100 0.0 1010294
18:00+18sse111580100 0.0 1010218
21:00+18se152277100 0.0 1010286
18 april, sun
sun1800:00+18se162282100 0.1 1012195
03:00+19sse121869100 0.1 1012135
06:00+18s61075100 0.0 1014111
09:00+18ese81180100 0.0 1014142
12:00+17ese91384100 0.0 1014181
15:00+18ne3383100 0.0 101520
18:00+18e71083100 0.0 1014161
21:00+18ese5878100 0.0 101482
19 april, mon
mon1900:00+17wnw8989100 0.0 1015197
03:00+17nw6785100 0.0 1014111
06:00+17n5683100 0.0 101176
09:00+18ne6780100 0.0 101175
12:00+17wnw5686100 0.0 1012134
15:00+16w11128210 0.0 1011493
18:00+16w111479100 0.0 1011778
21:00+16w13167498 0.0 1012866
20 april, tue
tue2000:00+16w1516745 0.0 1013829
03:00+16w1213770 0.0 1013935
06:00+16w1111690 0.0 1013873
09:00+16w910680 0.0 1015890
12:00+16w88680 0.0 1016752
15:00+16w88700 0.0 1016741
18:00+16w78753 0.0 1016754
21:00+16w88760 0.0 1017566
21 april, wed
wed2100:00+16w88750 0.0 1017624
03:00+16w88730 0.0 1017620
06:00+16w87730 0.0 1017543
09:00+16w66726 0.0 1018483
12:00+16w55705 0.0 1019453
15:00+17wnw456946 0.0 1020398
18:00+17wnw336941 0.0 1019314
21:00+16wnw34745 0.0 1020165